map of SZB home
Great Circle Mapper logo
SZB - Airport
Location
City:  Kuala Lumpur, Selangor, Malaysia
Near (Alt.):Subang
Name:Sultan Abdul Aziz Shah Airport
Old (Alt.):Subang International Airport
ICAO / IATA:WMSA / SZB

Details
Type:Airport (Aerodrome, Airfield)
Use:Public/Civil, International (customs port of entry)
Latitude:307'50"N (3.130583)
Longitude:10132'58"E (101.549333)
Datum:WGS 1984
Elevation:90 ft (27 m)
Variation:0.1W (WMM2015 magnetic declination)
Runways:1
Longest:12401 × 148 ft (3780 × 45 m), paved

Time
Time Zone:UTC+8
Local Time:

Weather
METAR:WMSA 201400Z 05001KT 7000 FEW025 SCT140 BKN280 26/25 Q1010
TAF:WMSA 201100Z 2012/2112 30005KT 9999 FEW017CB SCT140 BKN270 PROB30
TEMPO 2018/2022 4000 TSRA FEW015CB SCT018 BKN150
TEMPO 2106/2110 4000 TSRA FEW015CB SCT018 BKN150

Related Locations
Nearby:
Farthest:SEGZ: 12443 mi / 20024 km
Gualaquiza, EC

Find:

   beyond  
but within

Other Information
Maps:
NOTAMs:
Links:
Sources:

  
flag of Malaysia
flag of Selangor
  

Sectional Chart

Flight Planning
at skyvector.com

Satellite Image

Google Maps Satellite View

 

Copyright © 2004-2014 Karl L. Swartz. All rights reserved.
The Great Circle Mapper name and logo are trademarks of the Great Circle Mapper.
All other trademarks mentioned herein belong to their respective owners.
Please see credits for attibutions and further copyright information.

  Follow gcmap on Facebook Follow gcmap on Twitter

hCard Microformat

Geo Microformat